TimeCST,TemperatureF,Dew PointF,Humidity,Sea Level PressureIn,VisibilityMPH,Wind Direction,Wind SpeedMPH,Gust SpeedMPH,PrecipitationIn,Events,Conditions,WindDirDegrees,DateUTC
12:18 AM,28.4,24.8,86,29.77,10.0,WNW,15.0,27.6,N/A,,Overcast,290,2012-11-23 06:18:00
12:54 AM,27.0,21.0,78,29.80,10.0,WNW,21.9,32.2,N/A,,Overcast,290,2012-11-23 06:54:00
1:10 AM,26.6,19.4,74,29.79,10.0,WNW,21.9,34.5,N/A,,Overcast,290,2012-11-23 07:10:00
1:54 AM,25.0,16.0,69,29.82,10.0,West,25.3,39.1,N/A,,Overcast,280,2012-11-23 07:54:00
2:05 AM,24.8,15.8,69,29.80,10.0,West,24.2,34.5,N/A,,Overcast,280,2012-11-23 08:05:00
2:22 AM,24.8,15.8,69,29.80,10.0,WNW,23.0,32.2,N/A,,Overcast,290,2012-11-23 08:22:00
2:54 AM,24.1,16.0,71,29.84,10.0,WNW,23.0,33.4,N/A,,Overcast,290,2012-11-23 08:54:00
3:54 AM,23.0,17.1,78,29.85,4.0,West,24.2,34.5,0.00,Snow,Light Snow,280,2012-11-23 09:54:00
4:13 AM,21.2,17.6,86,29.82,6.0,West,15.0,28.8,0.00,Snow,Light Snow,280,2012-11-23 10:13:00
4:51 AM,21.2,17.6,86,29.83,2.0,West,17.3,27.6,0.00,Snow,Light Snow,280,2012-11-23 10:51:00
4:54 AM,21.9,18.0,85,29.86,2.0,West,18.4,28.8,0.00,Snow,Light Snow,280,2012-11-23 10:54:00
5:19 AM,21.2,17.6,86,29.83,1.8,West,19.6,32.2,0.00,Snow,Light Snow,280,2012-11-23 11:19:00
5:34 AM,21.2,17.6,86,29.84,2.0,WNW,20.7,28.8,0.00,Snow,Light Snow,290,2012-11-23 11:34:00
5:54 AM,21.9,18.0,85,29.88,3.0,WNW,20.7,27.6,0.00,Snow,Light Snow,290,2012-11-23 11:54:00
6:30 AM,21.2,17.6,86,29.86,2.0,WNW,18.4,31.1,0.00,Snow,Light Snow,290,2012-11-23 12:30:00
6:54 AM,21.9,18.0,85,29.92,2.0,WNW,21.9,32.2,0.00,Snow,Light Snow,300,2012-11-23 12:54:00
7:08 AM,21.2,17.6,86,29.89,4.0,WNW,19.6,32.2,0.00,Snow,Light Snow,300,2012-11-23 13:08:00
7:54 AM,23.0,17.1,78,29.97,8.0,WNW,20.7,32.2,0.00,Snow,Light Snow,300,2012-11-23 13:54:00
8:54 AM,24.1,16.0,71,30.01,10.0,NW,21.9,31.1,0.00,,Overcast,310,2012-11-23 14:54:00
9:54 AM,24.1,16.0,71,30.04,10.0,NW,21.9,35.7,N/A,,Overcast,310,2012-11-23 15:54:00
10:54 AM,24.1,17.1,75,30.09,10.0,NW,24.2,32.2,N/A,,Overcast,320,2012-11-23 16:54:00
11:54 AM,25.0,16.0,69,30.10,10.0,NW,27.6,36.8,N/A,,Overcast,310,2012-11-23 17:54:00
12:54 PM,25.0,17.1,72,30.13,10.0,NW,25.3,31.1,N/A,,Overcast,310,2012-11-23 18:54:00
1:54 PM,24.1,16.0,71,30.16,10.0,NW,26.5,33.4,N/A,,Overcast,310,2012-11-23 19:54:00
2:54 PM,25.0,16.0,69,30.19,10.0,NW,25.3,32.2,N/A,,Overcast,320,2012-11-23 20:54:00
3:54 PM,24.1,16.0,71,30.21,10.0,NW,16.1,29.9,N/A,,Overcast,320,2012-11-23 21:54:00
4:54 PM,23.0,15.1,72,30.23,10.0,NW,18.4,31.1,N/A,,Overcast,320,2012-11-23 22:54:00
5:54 PM,23.0,14.0,68,30.26,10.0,NW,16.1,-,N/A,,Overcast,320,2012-11-23 23:54:00
6:54 PM,23.0,14.0,68,30.27,10.0,NW,17.3,29.9,N/A,,Overcast,320,2012-11-24 00:54:00
7:54 PM,21.9,14.0,72,30.28,8.0,NNW,16.1,27.6,0.00,Snow,Light Snow,330,2012-11-24 01:54:00
8:54 PM,21.9,12.9,68,30.27,9.0,NNW,17.3,26.5,0.00,,Overcast,330,2012-11-24 02:54:00
9:54 PM,21.0,12.9,71,30.27,9.0,NNW,16.1,24.2,0.00,Snow,Light Snow,330,2012-11-24 03:54:00
10:54 PM,19.9,12.9,74,30.28,10.0,NNW,11.5,-,0.00,,Overcast,340,2012-11-24 04:54:00
11:54 PM,19.9,15.1,81,30.27,6.0,NNW,8.1,-,0.00,Snow,Light Snow,330,2012-11-24 05:54:00